Regional Weather Roundup
Issued by NWS

Home | Current Version | Previous Version | Text Only | Print | Product List | Glossary Off
Versions: 1 2 3 4 5 6 7 8 9 10 11 12 13 14 15 16 17 18 19 20 21 22 23 24 25 26 27 28 29 30 31 32 33 34 35 36 37 38 39 40 41 42 43 44 45 46 47 48 49 50

000
ASUS43 KLOT 011100
RWRIL

ILLINOIS REGIONAL WEATHER ROUNDUP
NATIONAL WEATHER SERVICE CHICAGO/ROMEOVILLE IL
500 AM CST SUN FEB 01 2015

NOTE: "FAIR" INDICATES FEW OR NO CLOUDS BELOW 12,000 FEET WITH NO
SIGNIFICANT WEATHER AND/OR OBSTRUCTIONS TO VISIBILITY.

* THESE STATIONS ARE NOT UNDER NWS QUALITY CONTROL. THEY ALSO MAY NOT
  REPORT WEATHER SUCH AS PRECIPITATION OR FOG.

ILZ001-002-007-009-015-016-024-011200-
NORTHWEST ILLINOIS

CITY           SKY/WX    TMP DP  RH WIND       PRES   REMARKS
MOLINE         LGT SNOW  32  31  96 E9        29.88F VSB 3/4 WCI  24
STERLING*        N/A    N/A N/A N/A MISG        N/A
$$

ILZ003-004-008-010-011-017-018-011200-
NORTH CENTRAL ILLINOIS

CITY           SKY/WX    TMP DP  RH WIND       PRES   REMARKS
ROCKFORD       LGT SNOW  29  26  89 E18G24    30.01F VSB 1   WCI  16
$$

ILZ005-006-012>014-019>023-011200-
NORTHEAST ILLINOIS

CITY           SKY/WX    TMP DP  RH WIND       PRES   REMARKS
CHICAGO-OHARE  SNOW      30  29  96 E10       30.02F VSB 1/2 WCI  21
CHICAGO-MIDWAY LGT SNOW  33  30  88 E10       30.02F VSB 3/4 WCI  25
AURORA         LGT SNOW  32  29  88 E15       29.99F VSB 3/4 WCI  22
WAUKEGAN       LGT SNOW  29  28  96 NE15G25   30.05F VSB 3/4 WCI  18
DUPAGE AIRPORT LGT SNOW  31  29  92 E10       30.00F VSB 3/4 WCI  22
WHEELING       LGT SNOW  30  28  92 E10       30.05F VSB 3/4 WCI  21
NORTHERLY ISL    N/A     31  30  96 E13         N/A  WCI  21
$$

LMZ740>746-011200-
SOUTHERN LAKE MICHIGAN

STATION/POSITION SKY/WX   TEMP    WIND        PRES    VSBY  WAVE
                          AIR SEA DIR/SP/G                  HT/PER
                          (F)     (DEG/KT/KT) (MB)    (MI)  (FT/S)
WAUKEGAN HARBOR            30      70/ 22/ 24   N/A
HARRISON CRIB              30      70/ 17/ 19   N/A
BURNHAM HARBOR             31      70/ 12/ 13   N/A
CALUMET HARBOR             31      80/ 10/ 13   N/A
MICHIGAN CITY              30      50/  7/  9   N/A
$$

ILZ025>027-034>036-040-047-049-050-058-095>099-011200-
WEST-CENTRAL ILLINOIS

CITY           SKY/WX    TMP DP  RH WIND       PRES   REMARKS
QUINCY         SNOW      33  31  92 SE10      29.82F VSB 1/2 WCI  25
$$

ILZ028>032-037-038-041>044-048-051>054-059>061-011200-
CENTRAL ILLINOIS

CITY           SKY/WX    TMP DP  RH WIND       PRES   REMARKS
DECATUR        LGT SNOW  33  32  96 E13       29.93F VSB 3/4 WCI  24
PEORIA         LGT SNOW  34  32  92 E10       29.89F VSB 3/4 WCI  26
SPRINGFIELD    LGT SNOW  33  32  96 SE15      29.87F FOG     WCI  23
TAYLORVILLE    NOT AVBL
$$

ILZ033-039-045-046-055>057-062-063-011200-
EAST-CENTRAL ILLINOIS

CITY           SKY/WX    TMP DP  RH WIND       PRES   REMARKS
CHAMPAIGN      LGT SNOW  33  33 100 E7        29.96F VSB 1   WCI  27
MATTOON        CLOUDY    34  26  72 E7        29.93F WCI  28
$$

ILZ079-100>102-011200-
SOUTHWEST ILLINOIS

CITY           SKY/WX    TMP DP  RH WIND       PRES   REMARKS
BELLEVILLE     LGT RAIN  35  35  99 E3        29.86S
CAHOKIA*       RAIN      36  33  89 N7        29.88F FOG     WCI  30
$$

ILZ064>066-069>071-074>076-080>082-084>086-088>090-092>094-011200-
SOUTH-CENTRAL ILLINOIS

CITY           SKY/WX    TMP DP  RH WIND       PRES   REMARKS
CARBONDALE     LGT RAIN  42  28  57 S10       29.86F
MT. VERNON     CLOUDY    37  25  60 SE3       29.90F
$$

ILZ067-068-072-073-078-083-087-091-011200-
SOUTHEAST ILLINOIS

CITY           SKY/WX    TMP DP  RH WIND       PRES   REMARKS
LAWRENCEVILLE  CLOUDY    36  26  67 E8        29.96F WCI  30
$$

ABBREVIATIONS USED IN REMARKS
   TC - TEMPERATURE IN CELSIUS
  WCI - WIND CHILL INDEX
   HX - HEAT INDEX
  VSB - VISIBILITY
$$




USA.gov is the U.S. government's official web portal to all federal, state and local government web resources and services.